,,PA_Meas_PMT16A,,PR_Meas_QMR101_102,,RH_Meas_QMH101,,SR_Meas_QMS101,,TA_Meas_QMH101,,GenWind,,GenWind,
time,status,PA,status,PR,status,RH,status,SR,status,TA,status,DirAvg,status,SpdAvg,
2013-12-03, 00:00:04,VALID,917.487,VALID,0,VALID,96.8174,VALID,0,VALID,20.2894,VALID,128,VALID,0,
2013-12-03, 00:01:04,VALID,917.476,VALID,0,VALID,96.825,VALID,0,VALID,20.2894,VALID,128,VALID,0,
2013-12-03, 00:02:04,VALID,917.48,VALID,0,VALID,96.8174,VALID,0,VALID,20.3089,VALID,128,VALID,0,
2013-12-03, 00:03:04,VALID,917.482,VALID,0,VALID,96.8174,VALID,0,VALID,20.3074,VALID,128,VALID,0,
2013-12-03, 00:04:04,VALID,917.482,VALID,0,VALID,96.8403,VALID,0,VALID,20.3284,VALID,128,VALID,0,
2013-12-03, 00:05:04,VALID,917.495,VALID,0,VALID,96.8021,VALID,0,VALID,20.3284,VALID,128,VALID,0,
2013-12-03, 00:06:04,VALID,917.46,VALID,0,VALID,96.8403,VALID,0,VALID,20.3284,VALID,128,VALID,0,
2013-12-03, 00:07:04,VALID,917.439,VALID,0,VALID,96.8403,VALID,0,VALID,20.3284,VALID,128,VALID,0,
2013-12-03, 00:08:04,VALID,917.443,VALID,0,VALID,96.8403,VALID,0,VALID,20.3284,VALID,128,VALID,0,
2013-12-03, 00:09:04,VALID,917.468,VALID,0,VALID,96.8479,VALID,0,VALID,20.3089,VALID,128,VALID,0,
2013-12-03, 00:10:04,VALID,917.503,VALID,0,VALID,96.8479,VALID,0,VALID,20.3284,VALID,128,VALID,0,
2013-12-03, 00:11:04,VALID,917.486,VALID,0,VALID,96.8707,VALID,0,VALID,20.3284,VALID,128,VALID,0,
2013-12-03, 00:12:04,VALID,917.459,VALID,0,VALID,96.8631,VALID,0,VALID,20.3089,VALID,128,VALID,0,
2013-12-03, 00:13:04,VALID,917.477,VALID,0,VALID,96.8479,VALID,0,VALID,20.3089,VALID,128,VALID,0,
2013-12-03, 00:14:04,VALID,917.462,VALID,0,VALID,96.8707,VALID,0,VALID,20.3074,VALID,129,VALID,0,
2013-12-03, 00:15:04,VALID,917.455,VALID,0,VALID,96.8707,VALID,0,VALID,20.3284,VALID,128,VALID,0,
2013-12-03, 00:16:04,VALID,917.433,VALID,0,VALID,96.886,VALID,0,VALID,20.3089,VALID,128,VALID,0,
2013-12-03, 00:17:04,VALID,917.448,VALID,0,VALID,96.8784,VALID,0,VALID,20.2879,VALID,129,VALID,0,
2013-12-03, 00:18:04,VALID,917.407,VALID,0,VALID,96.8784,VALID,0,VALID,20.2684,VALID,128,VALID,0,
2013-12-03, 00:19:04,VALID,917.422,VALID,0,VALID,96.8936,VALID,0,VALID,20.2879,VALID,128,VALID,0,
2013-12-03, 00:20:04,VALID,917.352,VALID,0,VALID,96.886,VALID,0,VALID,20.2879,VALID,128,VALID,0,
2013-12-03, 00:21:04,VALID,917.363,VALID,0,VALID,96.8936,VALID,0,VALID,20.2879,VALID,128,VALID,0,
2013-12-03, 00:22:04,VALID,917.308,VALID,0,VALID,96.8936,VALID,0,VALID,20.2894,VALID,128,VALID,0,
2013-12-03, 00:23:04,VALID,917.301,VALID,0,VALID,96.9012,VALID,0,VALID,20.2684,VALID,129,VALID,0,
2013-12-03, 00:24:05,VALID,917.294,VALID,0,VALID,96.9165,VALID,0,VALID,20.3074,VALID,128,VALID,0,
2013-12-03, 00:25:05,VALID,917.303,VALID,0,VALID,96.9165,VALID,0,VALID,20.2879,VALID,128,VALID,0,
2013-12-03, 00:26:05,VALID,917.287,VALID,0,VALID,96.9012,VALID,0,VALID,20.2879,VALID,128,VALID,0,
2013-12-03, 00:27:05,VALID,917.245,VALID,0,VALID,96.9165,VALID,0,VALID,20.3089,VALID,128,VALID,0,
2013-12-03, 00:28:05,VALID,917.229,VALID,0,VALID,96.9089,VALID,0,VALID,20.3089,VALID,128,VALID,0,
2013-12-03, 00:29:05,VALID,917.219,VALID,0,VALID,96.9241,VALID,0,VALID,20.2879,VALID,128,VALID,0,
2013-12-03, 00:30:05,VALID,917.224,VALID,0,VALID,96.9241,VALID,0,VALID,20.2894,VALID,128,VALID,0,
2013-12-03, 00:31:05,VALID,917.207,VALID,0,VALID,96.9165,VALID,0,VALID,20.2684,VALID,128,VALID,0,
2013-12-03, 00:32:05,VALID,917.194,VALID,0,VALID,96.9012,VALID,0,VALID,20.2293,VALID,128,VALID,0,
2013-12-03, 00:33:05,VALID,917.17,VALID,0,VALID,96.9165,VALID,0.107441,VALID,20.2293,VALID,128,VALID,0,
2013-12-03, 00:34:05,VALID,917.164,VALID,0,VALID,96.9241,VALID,0,VALID,20.2309,VALID,129,VALID,0,
2013-12-03, 00:35:05,VALID,917.169,VALID,0,VALID,96.886,VALID,0,VALID,20.2309,VALID,129,VALID,0,
2013-12-03, 00:36:05,VALID,917.157,VALID,0,VALID,96.9165,VALID,0,VALID,20.2293,VALID,128,VALID,0,
2013-12-03, 00:37:05,VALID,917.182,VALID,0,VALID,96.9165,VALID,0,VALID,20.2504,VALID,128,VALID,0,
2013-12-03, 00:38:05,VALID,917.127,VALID,0,VALID,96.9241,VALID,0,VALID,20.2894,VALID,128,VALID,0,
2013-12-03, 00:39:05,VALID,917.14,VALID,0,VALID,96.9317,VALID,0,VALID,20.2684,VALID,128,VALID,0,
2013-12-03, 00:40:05,VALID,917.127,VALID,0,VALID,96.9317,VALID,0,VALID,20.2684,VALID,128,VALID,0,
2013-12-03, 00:41:05,VALID,917.115,VALID,0,VALID,96.9241,VALID,0,VALID,20.2684,VALID,129,VALID,0,
2013-12-03, 00:42:05,VALID,917.106,VALID,0,VALID,96.9394,VALID,0,VALID,20.3089,VALID,129,VALID,0,
2013-12-03, 00:43:05,VALID,917.073,VALID,0,VALID,96.947,VALID,0,VALID,20.3074,VALID,129,VALID,0,
2013-12-03, 00:44:05,VALID,917.052,VALID,0,VALID,96.9394,VALID,0,VALID,20.2894,VALID,128,VALID,0,
2013-12-03, 00:45:05,VALID,917.058,VALID,0,VALID,96.9394,VALID,0,VALID,20.2489,VALID,128,VALID,0,
2013-12-03, 00:46:05,VALID,917.072,VALID,0,VALID,96.9241,VALID,0,VALID,20.2879,VALID,128,VALID,0,
2013-12-03, 00:47:05,VALID,917.024,VALID,0,VALID,96.9394,VALID,0,VALID,20.3074,VALID,128,VALID,0,
2013-12-03, 00:48:05,VALID,917.022,VALID,0,VALID,96.9394,VALID,0,VALID,20.2699,VALID,128,VALID,0,
2013-12-03, 00:49:05,VALID,917.065,VALID,0,VALID,96.9546,VALID,0,VALID,20.2879,VALID,146,VALID,0,
2013-12-03, 00:50:05,VALID,917.03,VALID,0,VALID,96.947,VALID,0,VALID,20.2684,VALID,146,VALID,0,
2013-12-03, 00:51:05,VALID,917.032,VALID,0,VALID,96.9622,VALID,0,VALID,20.3284,VALID,146,VALID,0,
2013-12-03, 00:52:05,VALID,917.017,VALID,0,VALID,96.9546,VALID,0,VALID,20.3284,VALID,146,VALID,0,
2013-12-03, 00:53:05,VALID,917.056,VALID,0,VALID,96.9622,VALID,0,VALID,20.2684,VALID,146,VALID,0,
2013-12-03, 00:54:05,VALID,917.048,VALID,0,VALID,96.9546,VALID,0,VALID,20.3074,VALID,146,VALID,0,
2013-12-03, 00:55:05,VALID,917.058,VALID,0,VALID,96.9698,VALID,0,VALID,20.3089,VALID,146,VALID,0,
2013-12-03, 00:56:05,VALID,917.083,VALID,0,VALID,96.947,VALID,0,VALID,20.3089,VALID,146,VALID,0,
2013-12-03, 00:57:05,VALID,917.063,VALID,0,VALID,96.9698,VALID,0,VALID,20.3269,VALID,146,VALID,0,
2013-12-03, 00:58:05,VALID,917.045,VALID,0,VALID,96.9775,VALID,0,VALID,20.2894,VALID,146,VALID,0,
2013-12-03, 00:59:05,VALID,917.021,VALID,0,VALID,96.9775,VALID,0,VALID,20.2504,VALID,136,VALID,0,
2013-12-03, 01:00:05,VALID,917.061,VALID,0,VALID,96.947,VALID,0,VALID,20.2114,VALID,129,VALID,0,
2013-12-03, 01:01:05,VALID,917.007,VALID,0,VALID,96.9927,VALID,0,VALID,20.1919,VALID,129,VALID,0,
2013-12-03, 01:02:05,VALID,917.033,VALID,0,VALID,96.9622,VALID,0,VALID,20.1919,VALID,129,VALID,0,
2013-12-03, 01:03:05,VALID,917.02,VALID,0,VALID,96.9851,VALID,0,VALID,20.1724,VALID,129,VALID,0,
2013-12-03, 01:04:05,VALID,916.981,VALID,0,VALID,96.9927,VALID,0,VALID,20.1724,VALID,129,VALID,0,
2013-12-03, 01:05:05,VALID,916.999,VALID,0,VALID,97.0003,VALID,0,VALID,20.1529,VALID,129,VALID,0,
2013-12-03, 01:06:05,VALID,916.984,VALID,0,VALID,97.008,VALID,0,VALID,20.1318,VALID,129,VALID,0,
2013-12-03, 01:07:05,VALID,916.981,VALID,0,VALID,97.0003,VALID,0,VALID,20.1139,VALID,129,VALID,0,
2013-12-03, 01:08:05,VALID,916.967,VALID,0,VALID,96.9851,VALID,0,VALID,20.1334,VALID,129,VALID,0,
2013-12-03, 01:09:05,VALID,916.997,VALID,0,VALID,96.9927,VALID,0,VALID,20.0749,VALID,129,VALID,0,
2013-12-03, 01:10:05,VALID,916.94,VALID,0,VALID,97.008,VALID,0,VALID,20.0733,VALID,129,VALID,0,
2013-12-03, 01:11:05,VALID,916.964,VALID,0,VALID,96.9927,VALID,0,VALID,20.0944,VALID,129,VALID,0,
2013-12-03, 01:12:05,VALID,916.929,VALID,0,VALID,96.9927,VALID,0,VALID,20.0944,VALID,129,VALID,0,
2013-12-03, 01:13:05,VALID,916.92,VALID,0,VALID,97.0232,VALID,0.107441,VALID,20.0523,VALID,129,VALID,0,
2013-12-03, 01:14:05,VALID,916.884,VALID,0,VALID,97.008,VALID,0,VALID,20.0538,VALID,129,VALID,0,
2013-12-03, 01:15:05,VALID,916.879,VALID,0,VALID,97.008,VALID,0,VALID,20.0538,VALID,129,VALID,0,
2013-12-03, 01:16:05,VALID,916.859,VALID,0,VALID,97.0156,VALID,0,VALID,20.0343,VALID,91,VALID,0,
2013-12-03, 01:17:05,VALID,916.821,VALID,0,VALID,97.0461,VALID,0.107441,VALID,19.9938,VALID,70,VALID,0,
2013-12-03, 01:18:05,VALID,916.822,VALID,0,VALID,97.0308,VALID,0.107441,VALID,20.0343,VALID,67,VALID,0,
2013-12-03, 01:19:05,VALID,916.78,VALID,0,VALID,97.0308,VALID,0,VALID,20.0148,VALID,61,VALID,0,
2013-12-03, 01:20:05,VALID,916.743,VALID,0,VALID,97.0232,VALID,0,VALID,19.9953,VALID,69,VALID,0,
2013-12-03, 01:21:05,VALID,916.724,VALID,0,VALID,97.0232,VALID,0.107441,VALID,19.9953,VALID,73,VALID,0,
2013-12-03, 01:22:05,VALID,916.692,VALID,0,VALID,97.0461,VALID,0,VALID,19.9953,VALID,73,VALID,0,
2013-12-03, 01:23:05,VALID,916.676,VALID,0,VALID,97.0537,VALID,0.107441,VALID,19.9953,VALID,73,VALID,0,
2013-12-03, 01:24:05,VALID,916.687,VALID,0,VALID,97.0537,VALID,0.107441,VALID,19.9953,VALID,73,VALID,0,
2013-12-03, 01:25:05,VALID,916.655,VALID,0,VALID,97.0461,VALID,0,VALID,19.9953,VALID,73,VALID,0,
2013-12-03, 01:26:05,VALID,916.602,VALID,0,VALID,97.0385,VALID,0.107441,VALID,20.0148,VALID,73,VALID,0,
2013-12-03, 01:27:05,VALID,916.608,VALID,0,VALID,97.0613,VALID,0.107441,VALID,20.0343,VALID,73,VALID,0,
2013-12-03, 01:28:05,VALID,916.571,VALID,0,VALID,97.0537,VALID,0,VALID,20.0358,VALID,73,VALID,0,
2013-12-03, 01:29:05,VALID,916.594,VALID,0,VALID,97.069,VALID,0,VALID,20.0358,VALID,54,VALID,0,
2013-12-03, 01:30:05,VALID,916.583,VALID,0,VALID,97.0537,VALID,0,VALID,20.0553,VALID,13,VALID,0,
2013-12-03, 01:31:05,VALID,916.527,VALID,0,VALID,97.0613,VALID,0,VALID,20.0343,VALID,13,VALID,0,
2013-12-03, 01:32:05,VALID,916.522,VALID,0,VALID,97.0537,VALID,0,VALID,20.0944,VALID,13,VALID,0,
2013-12-03, 01:33:05,VALID,916.501,VALID,0,VALID,97.069,VALID,0,VALID,20.1139,VALID,13,VALID,0,
2013-12-03, 01:34:05,VALID,916.483,VALID,0,VALID,97.0537,VALID,0,VALID,20.1139,VALID,13,VALID,0,
2013-12-03, 01:35:05,VALID,916.491,VALID,0,VALID,97.0766,VALID,0,VALID,20.0944,VALID,13,VALID,0,
2013-12-03, 01:36:05,VALID,916.464,VALID,0,VALID,97.0766,VALID,0,VALID,20.0538,VALID,27,VALID,0,
2013-12-03, 01:37:05,VALID,916.454,VALID,0,VALID,97.0766,VALID,0,VALID,20.0553,VALID,59,VALID,0,
2013-12-03, 01:38:05,VALID,916.431,VALID,0,VALID,97.0842,VALID,0,VALID,20.0163,VALID,59,VALID,0,
2013-12-03, 01:39:05,VALID,916.452,VALID,0,VALID,97.0842,VALID,0,VALID,20.0163,VALID,59,VALID,0,
2013-12-03, 01:40:05,VALID,916.429,VALID,0,VALID,97.0842,VALID,0,VALID,20.0358,VALID,59,VALID,0,
2013-12-03, 01:41:05,VALID,916.468,VALID,0,VALID,97.0842,VALID,0,VALID,20.0358,VALID,59,VALID,0,
2013-12-03, 01:42:05,VALID,916.437,VALID,0,VALID,97.0918,VALID,0,VALID,20.0358,VALID,59,VALID,0,
2013-12-03, 01:43:05,VALID,916.438,VALID,0,VALID,97.0994,VALID,0,VALID,20.0358,VALID,59,VALID,0,
2013-12-03, 01:44:05,VALID,916.38,VALID,0,VALID,97.0994,VALID,0,VALID,20.0148,VALID,59,VALID,0,
2013-12-03, 01:45:05,VALID,916.431,VALID,0,VALID,97.0994,VALID,0,VALID,20.0358,VALID,59,VALID,0,
2013-12-03, 01:46:05,VALID,916.393,VALID,0,VALID,97.1071,VALID,0,VALID,20.0358,VALID,59,VALID,0,
2013-12-03, 01:47:05,VALID,916.379,VALID,0,VALID,97.0918,VALID,0,VALID,20.0358,VALID,59,VALID,0,
2013-12-03, 01:48:05,VALID,916.384,VALID,0,VALID,97.1147,VALID,0,VALID,20.0358,VALID,59,VALID,0,
2013-12-03, 01:49:05,VALID,916.352,VALID,0,VALID,97.1147,VALID,0,VALID,20.0163,VALID,59,VALID,0,
2013-12-03, 01:50:05,VALID,916.357,VALID,0,VALID,97.1223,VALID,0,VALID,20.0163,VALID,59,VALID,0,
2013-12-03, 01:51:05,VALID,916.376,VALID,0,VALID,97.1147,VALID,0,VALID,20.0163,VALID,59,VALID,0,
2013-12-03, 01:52:05,VALID,916.36,VALID,0,VALID,97.1223,VALID,0,VALID,19.9383,VALID,59,VALID,0,
2013-12-03, 01:53:05,VALID,916.33,VALID,0,VALID,97.1299,VALID,0,VALID,19.9383,VALID,59,VALID,0,
2013-12-03, 01:54:05,VALID,916.329,VALID,0,VALID,97.1299,VALID,0,VALID,19.9383,VALID,59,VALID,0,
2013-12-03, 01:55:05,VALID,916.322,VALID,0,VALID,97.1452,VALID,0,VALID,19.8993,VALID,59,VALID,0,
2013-12-03, 01:56:05,VALID,916.313,VALID,0,VALID,97.1299,VALID,0,VALID,19.8603,VALID,59,VALID,0,
2013-12-03, 01:57:05,VALID,916.283,VALID,0,VALID,97.1452,VALID,0,VALID,19.8798,VALID,59,VALID,0,
2013-12-03, 01:58:05,VALID,916.268,VALID,0,VALID,97.1376,VALID,0.107441,VALID,19.8588,VALID,59,VALID,0,
2013-12-03, 01:59:05,VALID,916.25,VALID,0,VALID,97.1299,VALID,0,VALID,19.8783,VALID,59,VALID,0,
2013-12-03, 02:00:05,VALID,916.222,VALID,0,VALID,97.1376,VALID,0,VALID,19.9188,VALID,59,VALID,0,
2013-12-03, 02:01:05,VALID,916.199,VALID,0,VALID,97.1528,VALID,0,VALID,19.8603,VALID,59,VALID,0,
2013-12-03, 02:02:05,VALID,916.185,VALID,0,VALID,97.1528,VALID,0.107441,VALID,19.8783,VALID,59,VALID,0,
2013-12-03, 02:03:05,VALID,916.165,VALID,0,VALID,97.1452,VALID,0,VALID,19.8978,VALID,59,VALID,0,
2013-12-03, 02:04:05,VALID,916.126,VALID,0,VALID,97.1452,VALID,0.107441,VALID,19.9368,VALID,59,VALID,0,
2013-12-03, 02:05:05,VALID,916.127,VALID,0,VALID,97.1376,VALID,0,VALID,19.9383,VALID,59,VALID,0,
2013-12-03, 02:06:05,VALID,916.137,VALID,0,VALID,97.1528,VALID,0,VALID,19.9368,VALID,59,VALID,0,
2013-12-03, 02:07:05,VALID,916.121,VALID,0,VALID,97.1604,VALID,0.107441,VALID,19.8978,VALID,59,VALID,0,
2013-12-03, 02:08:05,VALID,916.111,VALID,0,VALID,97.1528,VALID,0.107441,VALID,19.8393,VALID,59,VALID,0,
2013-12-03, 02:09:05,VALID,916.101,VALID,0,VALID,97.1681,VALID,0.107441,VALID,19.8783,VALID,59,VALID,0,
2013-12-03, 02:10:05,VALID,916.066,VALID,0,VALID,97.1681,VALID,0.107441,VALID,19.8783,VALID,59,VALID,0,
2013-12-03, 02:11:05,VALID,916.086,VALID,0,VALID,97.1681,VALID,0.107441,VALID,19.8978,VALID,59,VALID,0,
2013-12-03, 02:12:05,VALID,916.081,VALID,0,VALID,97.1604,VALID,0,VALID,19.8783,VALID,59,VALID,0,
2013-12-03, 02:13:05,VALID,916.049,VALID,0,VALID,97.1681,VALID,0,VALID,19.9383,VALID,59,VALID,0,
2013-12-03, 02:14:05,VALID,916.075,VALID,0,VALID,97.1604,VALID,0,VALID,19.9368,VALID,59,VALID,0,
2013-12-03, 02:15:05,VALID,916.023,VALID,0,VALID,97.1681,VALID,0,VALID,19.9578,VALID,59,VALID,0,
2013-12-03, 02:16:05,VALID,916.003,VALID,0,VALID,97.1757,VALID,0,VALID,19.9563,VALID,59,VALID,0,
2013-12-03, 02:17:05,VALID,915.984,VALID,0,VALID,97.1681,VALID,0,VALID,19.9563,VALID,59,VALID,0,
2013-12-03, 02:18:05,VALID,915.99,VALID,0,VALID,97.1833,VALID,0,VALID,19.9578,VALID,59,VALID,0,
2013-12-03, 02:19:05,VALID,915.957,VALID,0,VALID,97.1833,VALID,0.107441,VALID,19.9578,VALID,59,VALID,0,
2013-12-03, 02:20:05,VALID,915.963,VALID,0,VALID,97.1604,VALID,0,VALID,19.9578,VALID,59,VALID,0,
2013-12-03, 02:21:05,VALID,915.956,VALID,0,VALID,97.1757,VALID,0,VALID,19.9563,VALID,59,VALID,0,
2013-12-03, 02:22:05,VALID,915.937,VALID,0,VALID,97.1833,VALID,0,VALID,19.9563,VALID,59,VALID,0,
2013-12-03, 02:23:05,VALID,915.945,VALID,0,VALID,97.1833,VALID,0,VALID,19.9173,VALID,59,VALID,0,
2013-12-03, 02:24:05,VALID,915.918,VALID,0,VALID,97.1986,VALID,0,VALID,19.8978,VALID,59,VALID,0,
2013-12-03, 02:25:05,VALID,915.929,VALID,0,VALID,97.1986,VALID,0,VALID,19.8588,VALID,59,VALID,0,
2013-12-03, 02:26:05,VALID,915.909,VALID,0,VALID,97.1986,VALID,0,VALID,19.8003,VALID,59,VALID,0,
2013-12-03, 02:27:05,VALID,915.867,VALID,0,VALID,97.1986,VALID,0,VALID,19.8018,VALID,59,VALID,0,
2013-12-03, 02:28:05,VALID,915.86,VALID,0,VALID,97.2138,VALID,0,VALID,19.7823,VALID,59,VALID,0,
2013-12-03, 02:29:05,VALID,915.853,VALID,0,VALID,97.2138,VALID,0,VALID,19.8018,VALID,59,VALID,0,
2013-12-03, 02:30:05,VALID,915.851,VALID,0,VALID,97.2062,VALID,0,VALID,19.7823,VALID,59,VALID,0,
2013-12-03, 02:31:05,VALID,915.814,VALID,0,VALID,97.1986,VALID,0,VALID,19.7823,VALID,59,VALID,0,
2013-12-03, 02:32:05,VALID,915.824,VALID,0,VALID,97.2062,VALID,0,VALID,19.7823,VALID,59,VALID,0,
2013-12-03, 02:33:05,VALID,915.809,VALID,0,VALID,97.2138,VALID,0,VALID,19.7613,VALID,59,VALID,0,
2013-12-03, 02:34:05,VALID,915.811,VALID,0,VALID,97.2062,VALID,0,VALID,19.8018,VALID,59,VALID,0,
2013-12-03, 02:35:05,VALID,915.789,VALID,0,VALID,97.2138,VALID,0,VALID,19.8003,VALID,59,VALID,0,
2013-12-03, 02:36:05,VALID,915.811,VALID,0,VALID,97.2062,VALID,0,VALID,19.7808,VALID,59,VALID,0,
2013-12-03, 02:37:05,VALID,915.774,VALID,0,VALID,97.1986,VALID,0,VALID,19.7808,VALID,59,VALID,0,
2013-12-03, 02:38:05,VALID,915.795,VALID,0,VALID,97.2214,VALID,0,VALID,19.8198,VALID,59,VALID,0,
2013-12-03, 02:39:05,VALID,915.772,VALID,0,VALID,97.2214,VALID,0,VALID,19.8213,VALID,59,VALID,0,
2013-12-03, 02:40:05,VALID,915.795,VALID,0,VALID,97.2138,VALID,0,VALID,19.7808,VALID,59,VALID,0,
2013-12-03, 02:41:05,VALID,915.747,VALID,0,VALID,97.1986,VALID,0,VALID,19.8213,VALID,59,VALID,0,
2013-12-03, 02:42:05,VALID,915.739,VALID,0,VALID,97.2138,VALID,0,VALID,19.7808,VALID,59,VALID,0,
2013-12-03, 02:43:05,VALID,915.717,VALID,0,VALID,97.2214,VALID,0,VALID,19.8018,VALID,59,VALID,0,
2013-12-03, 02:44:05,VALID,915.718,VALID,0,VALID,97.1986,VALID,0,VALID,19.7418,VALID,59,VALID,0,
2013-12-03, 02:45:05,VALID,915.699,VALID,0,VALID,97.229,VALID,0,VALID,19.7433,VALID,59,VALID,0,
2013-12-03, 02:46:05,VALID,915.685,VALID,0,VALID,97.2214,VALID,0,VALID,19.7628,VALID,59,VALID,0,
2013-12-03, 02:47:05,VALID,915.674,VALID,0,VALID,97.2367,VALID,0,VALID,19.7223,VALID,59,VALID,0,
2013-12-03, 02:48:05,VALID,915.661,VALID,0,VALID,97.2443,VALID,0,VALID,19.7223,VALID,59,VALID,0,
2013-12-03, 02:49:05,VALID,915.651,VALID,0,VALID,97.2367,VALID,0,VALID,19.7223,VALID,59,VALID,0,
2013-12-03, 02:50:05,VALID,915.649,VALID,0,VALID,97.229,VALID,0,VALID,19.7433,VALID,59,VALID,0,
2013-12-03, 02:51:05,VALID,915.665,VALID,0,VALID,97.2367,VALID,0.107441,VALID,19.7028,VALID,59,VALID,0,
2013-12-03, 02:52:05,VALID,915.65,VALID,0,VALID,97.2367,VALID,0,VALID,19.7043,VALID,59,VALID,0,
2013-12-03, 02:53:05,VALID,915.665,VALID,0,VALID,97.2519,VALID,0,VALID,19.7043,VALID,59,VALID,0,
2013-12-03, 02:54:05,VALID,915.663,VALID,0,VALID,97.229,VALID,0,VALID,19.6848,VALID,59,VALID,0,
2013-12-03, 02:55:05,VALID,915.689,VALID,0,VALID,97.2443,VALID,0,VALID,19.6638,VALID,59,VALID,0,
2013-12-03, 02:56:05,VALID,915.682,VALID,0,VALID,97.2367,VALID,0,VALID,19.7028,VALID,59,VALID,0,
2013-12-03, 02:57:05,VALID,915.646,VALID,0,VALID,97.229,VALID,0,VALID,19.7028,VALID,59,VALID,0,
2013-12-03, 02:58:05,VALID,915.668,VALID,0,VALID,97.2367,VALID,0,VALID,19.7238,VALID,59,VALID,0,
2013-12-03, 02:59:05,VALID,915.628,VALID,0,VALID,97.2595,VALID,0,VALID,19.7238,VALID,59,VALID,0,
2013-12-03, 03:00:05,VALID,915.645,VALID,0,VALID,97.2519,VALID,0,VALID,19.7433,VALID,59,VALID,0,
2013-12-03, 03:01:05,VALID,915.613,VALID,0,VALID,97.2519,VALID,0,VALID,19.7223,VALID,59,VALID,0,
2013-12-03, 03:02:05,VALID,915.593,VALID,0,VALID,97.2519,VALID,0,VALID,19.7418,VALID,59,VALID,0,
2013-12-03, 03:03:05,VALID,915.587,VALID,0,VALID,97.229,VALID,0,VALID,19.7823,VALID,59,VALID,0,
2013-12-03, 03:04:05,VALID,915.496,VALID,0,VALID,97.2519,VALID,0,VALID,19.7613,VALID,58,VALID,0,
2013-12-03, 03:05:05,VALID,915.472,VALID,0,VALID,97.2595,VALID,0,VALID,19.7613,VALID,59,VALID,0,
2013-12-03, 03:06:05,VALID,915.428,VALID,0,VALID,97.2595,VALID,0,VALID,19.7823,VALID,59,VALID,0,
2013-12-03, 03:07:04,VALID,915.362,VALID,0,VALID,97.2595,VALID,0,VALID,19.7613,VALID,59,VALID,0,
2013-12-03, 03:08:04,VALID,915.363,VALID,0,VALID,97.2367,VALID,0,VALID,19.7628,VALID,59,VALID,0,
2013-12-03, 03:09:04,VALID,915.322,VALID,0,VALID,97.2595,VALID,0,VALID,19.7418,VALID,59,VALID,0,
2013-12-03, 03:10:04,VALID,915.298,VALID,0,VALID,97.2595,VALID,0,VALID,19.7628,VALID,59,VALID,0,
2013-12-03, 03:11:04,VALID,915.274,VALID,0,VALID,97.2595,VALID,0,VALID,19.7433,VALID,59,VALID,0,
2013-12-03, 03:12:04,VALID,915.256,VALID,0,VALID,97.2595,VALID,0,VALID,19.7238,VALID,59,VALID,0,
2013-12-03, 03:13:04,VALID,915.242,VALID,0,VALID,97.2748,VALID,0,VALID,19.7238,VALID,59,VALID,0,
2013-12-03, 03:14:04,VALID,915.207,VALID,0,VALID,97.2443,VALID,0,VALID,19.6638,VALID,59,VALID,0,
2013-12-03, 03:15:04,VALID,915.186,VALID,0,VALID,97.29,VALID,0,VALID,19.6443,VALID,59,VALID,0,
2013-12-03, 03:16:04,VALID,915.171,VALID,0,VALID,97.3053,VALID,0,VALID,19.6443,VALID,59,VALID,0,
2013-12-03, 03:17:04,VALID,915.155,VALID,0,VALID,97.2824,VALID,0.107441,VALID,19.6248,VALID,59,VALID,0,
2013-12-03, 03:18:04,VALID,915.134,VALID,0,VALID,97.2748,VALID,0,VALID,19.6053,VALID,59,VALID,0,
2013-12-03, 03:19:04,VALID,915.127,VALID,0,VALID,97.3053,VALID,0,VALID,19.6263,VALID,59,VALID,0,
2013-12-03, 03:20:04,VALID,915.087,VALID,0,VALID,97.2824,VALID,0,VALID,19.6263,VALID,59,VALID,0,
2013-12-03, 03:21:04,VALID,915.091,VALID,0,VALID,97.2977,VALID,0.107441,VALID,19.5858,VALID,59,VALID,0,
2013-12-03, 03:22:04,VALID,915.09,VALID,0,VALID,97.29,VALID,0,VALID,19.5858,VALID,59,VALID,0,
2013-12-03, 03:23:04,VALID,915.076,VALID,0,VALID,97.3129,VALID,0,VALID,19.5858,VALID,59,VALID,0,
2013-12-03, 03:24:04,VALID,915.116,VALID,0,VALID,97.2824,VALID,0.107441,VALID,19.5858,VALID,59,VALID,0,
2013-12-03, 03:25:04,VALID,915.118,VALID,0,VALID,97.29,VALID,0,VALID,19.5858,VALID,59,VALID,0,
2013-12-03, 03:26:04,VALID,915.148,VALID,0,VALID,97.2977,VALID,0,VALID,19.5663,VALID,59,VALID,0,
2013-12-03, 03:27:04,VALID,915.153,VALID,0,VALID,97.2977,VALID,0,VALID,19.5663,VALID,59,VALID,0,
2013-12-03, 03:28:04,VALID,915.138,VALID,0,VALID,97.2824,VALID,0.107441,VALID,19.5858,VALID,59,VALID,0,
2013-12-03, 03:29:04,VALID,915.169,VALID,0,VALID,97.3281,VALID,0,VALID,19.5078,VALID,59,VALID,0,
2013-12-03, 03:30:04,VALID,915.161,VALID,0,VALID,97.3129,VALID,0,VALID,19.4493,VALID,59,VALID,0,
2013-12-03, 03:31:04,VALID,915.162,VALID,0,VALID,97.3281,VALID,0,VALID,19.4298,VALID,59,VALID,0,
2013-12-03, 03:32:04,VALID,915.18,VALID,0,VALID,97.3205,VALID,0,VALID,19.4298,VALID,59,VALID,0,
2013-12-03, 03:33:04,VALID,915.171,VALID,0,VALID,97.3053,VALID,0,VALID,19.4508,VALID,59,VALID,0,
2013-12-03, 03:34:04,VALID,915.194,VALID,0,VALID,97.3205,VALID,0.107441,VALID,19.4703,VALID,59,VALID,0,
2013-12-03, 03:35:04,VALID,915.174,VALID,0,VALID,97.3053,VALID,0,VALID,19.4883,VALID,59,VALID,0,
2013-12-03, 03:36:04,VALID,915.188,VALID,0,VALID,97.3053,VALID,0,VALID,19.4898,VALID,59,VALID,0,
2013-12-03, 03:37:04,VALID,915.189,VALID,0,VALID,97.3053,VALID,0,VALID,19.5093,VALID,59,VALID,0,
2013-12-03, 03:38:04,VALID,915.172,VALID,0,VALID,97.3129,VALID,0,VALID,19.5093,VALID,59,VALID,0,
2013-12-03, 03:39:04,VALID,915.143,VALID,0,VALID,97.3053,VALID,0,VALID,19.5078,VALID,59,VALID,0,
2013-12-03, 03:40:04,VALID,915.141,VALID,0,VALID,97.3205,VALID,0,VALID,19.5273,VALID,59,VALID,0,
2013-12-03, 03:41:04,VALID,915.127,VALID,0,VALID,97.29,VALID,0,VALID,19.5468,VALID,59,VALID,0,
2013-12-03, 03:42:04,VALID,915.136,VALID,0,VALID,97.3129,VALID,0,VALID,19.5468,VALID,59,VALID,0,
2013-12-03, 03:43:04,VALID,915.137,VALID,0,VALID,97.2977,VALID,0,VALID,19.5468,VALID,59,VALID,0,
2013-12-03, 03:44:04,VALID,915.123,VALID,0,VALID,97.3205,VALID,0.107441,VALID,19.5873,VALID,59,VALID,0,
2013-12-03, 03:45:04,VALID,915.13,VALID,0,VALID,97.3053,VALID,0,VALID,19.5678,VALID,59,VALID,0,
2013-12-03, 03:46:04,VALID,915.098,VALID,0,VALID,97.3053,VALID,0,VALID,19.5078,VALID,59,VALID,0,
2013-12-03, 03:47:04,VALID,915.107,VALID,0,VALID,97.3281,VALID,0.107441,VALID,19.5288,VALID,59,VALID,0,
2013-12-03, 03:48:04,VALID,915.077,VALID,0,VALID,97.2977,VALID,0.107441,VALID,19.5288,VALID,59,VALID,0,
2013-12-03, 03:49:04,VALID,915.09,VALID,0,VALID,97.3205,VALID,0,VALID,19.5078,VALID,59,VALID,0,
2013-12-03, 03:50:04,VALID,915.08,VALID,0,VALID,97.3053,VALID,0,VALID,19.5078,VALID,59,VALID,0,
2013-12-03, 03:51:04,VALID,915.065,VALID,0,VALID,97.3358,VALID,0,VALID,19.5093,VALID,59,VALID,0,
2013-12-03, 03:52:04,VALID,915.058,VALID,0,VALID,97.3205,VALID,0,VALID,19.4898,VALID,59,VALID,0,
2013-12-03, 03:53:04,VALID,915.089,VALID,0,VALID,97.3434,VALID,0,VALID,19.4493,VALID,59,VALID,0,
2013-12-03, 03:54:04,VALID,915.104,VALID,0,VALID,97.3281,VALID,0,VALID,19.4703,VALID,59,VALID,0,
2013-12-03, 03:55:04,VALID,915.096,VALID,0,VALID,97.3205,VALID,0,VALID,19.4703,VALID,59,VALID,0,
2013-12-03, 03:56:04,VALID,915.096,VALID,0,VALID,97.3205,VALID,0,VALID,19.4298,VALID,59,VALID,0,
2013-12-03, 03:57:04,VALID,915.085,VALID,0,VALID,97.3358,VALID,0,VALID,19.4313,VALID,59,VALID,0,
2013-12-03, 03:58:04,VALID,915.095,VALID,0,VALID,97.351,VALID,0.107441,VALID,19.3908,VALID,59,VALID,0,
2013-12-03, 03:59:04,VALID,915.061,VALID,0,VALID,97.3358,VALID,0.107441,VALID,19.3908,VALID,59,VALID,0,